Flag for Sudan

Past Weather in Khartoum, Sudan — Yesterday and Last 2 Weeks

Now
90 °F

Clear.


Feels Like: 91 °F
Forecast: 102 / 79 °F
Wind: 14 mph from Southwest

Location: Khartoum Airport
Current Time: Sep 19, 2020 at 2:47:02 am
Latest Report: Sep 19, 2020 at 2:00 am
Visibility: 10 mi
Pressure29.77 "Hg
Humidity: 43%
Dew Point: 64 °F
Location of KhartoumLocation

Past Weather in Khartoum — Graph

°F

Khartoum Temperature Yesterday

Maximum temperature yesterday: 102 °F (at 2:30 pm)
Minimum temperature yesterday: 81 °F (at 5:00 am)
Average temperature yesterday: 92 °F

High & Low Weather Summary for the Past Weeks

 TemperatureHumidityPressure
High102 °F (Sep 7, 2:00 pm)83% (Sep 12, 4:30 am)29.98 "Hg (Sep 12, 4:30 am)
Low72 °F (Sep 10, 6:00 am)21% (Sep 17, 1:30 pm)29.68 "Hg (Sep 6, 3:30 pm)
Average89 °F49%29.83 "Hg
* Reported Sep 4 2:00 am — Sep 19 2:00 am, Khartoum. Weather by CustomWeather, © 2020

Note: Actual official high and low records may vary slightly from our data, if they occured in-between our weather recording intervals... More about our weather records

Khartoum Weather History for the Previous 24 Hours

Scroll right to see more
 ConditionsComfort  
Time TempWeatherWind HumidityBarometerVisibility
2:00 am
Sat, Sep 19
90 °FClear.14 mph43%29.77 "Hg10 mi
1:30 am90 °FClear.14 mph46%29.77 "Hg10 mi
1:00 am90 °FClear.14 mph43%29.80 "Hg10 mi
12:30 am90 °FClear.13 mph46%29.80 "Hg10 mi
12:00 am91 °FClear.14 mph41%29.80 "Hg10 mi
11:30 pm
Fri, Sep 18
91 °FClear.13 mph44%29.80 "Hg10 mi
11:00 pm91 °FClear.15 mph41%29.83 "Hg10 mi
10:30 pm91 °FClear.13 mph41%29.83 "Hg10 mi
10:00 pm91 °FClear.15 mph41%29.83 "Hg10 mi
9:30 pm93 °FClear.15 mph39%29.83 "Hg10 mi
9:00 pm93 °FClear.14 mph39%29.83 "Hg10 mi
8:30 pm95 °FClear.13 mph39%29.80 "Hg10 mi
8:00 pm95 °FClear.7 mph39%29.80 "Hg10 mi
7:30 pm95 °FClear.5 mph36%29.80 "Hg10 mi
7:00 pm95 °FClear.5 mph34%29.77 "Hg10 mi
6:30 pm95 °FClear.6 mph34%29.77 "Hg10 mi
6:00 pm99 °FClear.3 mph27%29.77 "Hg10 mi
5:30 pm100 °FSunny.7 mph25%29.77 "Hg10 mi
5:00 pm100 °FSunny.3 mph24%29.77 "Hg10 mi
4:30 pm102 °FSunny.3 mph23%29.77 "Hg10 mi
4:00 pm102 °FSunny.12 mph23%29.77 "Hg10 mi
3:30 pm102 °FSunny.12 mph23%29.77 "Hg10 mi
3:00 pm102 °FSunny.10 mph23%29.77 "Hg10 mi
2:30 pm102 °FSunny.9 mph24%29.80 "Hg10 mi
2:00 pm100 °FSunny.10 mph24%29.80 "Hg10 mi
1:30 pm100 °FSunny.10 mph24%29.80 "Hg10 mi
1:00 pm99 °FSunny.12 mph27%29.83 "Hg10 mi
12:30 pm99 °FSunny.15 mph29%29.83 "Hg10 mi
12:00 pm99 °FSunny.14 mph29%29.83 "Hg10 mi
11:30 am97 °FSunny.12 mph30%29.86 "Hg10 mi
11:00 am97 °FSunny.18 mph30%29.86 "Hg10 mi
10:30 am95 °FSunny.14 mph32%29.89 "Hg10 mi
10:00 am93 °FSunny.14 mph39%29.89 "Hg10 mi
9:30 am91 °FSunny.14 mph41%29.89 "Hg10 mi
9:00 am90 °FSunny.17 mph26%29.89 "Hg10 mi
8:30 am90 °FSunny.7 mph49%29.89 "Hg10 mi
8:00 am88 °FSunny.5 mph55%29.89 "Hg10 mi
7:30 am86 °FWarm.3 mph59%29.86 "Hg5 mi
7:00 am84 °FWarm.2 mph62%29.86 "Hg5 mi
6:30 am82 °FWarm.2 mph66%29.83 "Hg5 mi
6:00 am81 °FSunny.2 mph66%29.83 "Hg10 mi
5:30 am81 °FClear.2 mph62%29.83 "Hg10 mi
5:00 am81 °FClear.3 mph62%29.83 "Hg10 mi
4:30 am82 °FClear.5 mph58%29.83 "Hg10 mi
4:00 am82 °FWarm.2 mph58%29.83 "Hg5 mi
3:30 am82 °FWarm.No wind62%29.83 "Hg4 mi
3:00 am84 °FWarm.2 mph55%29.83 "Hg4 mi
2:30 am84 °FHaze.3 mph58%29.83 "Hg2 mi
2:00 am84 °FHaze.2 mph58%29.83 "Hg2 mi
Weather by CustomWeather, © 2020

See weather overview